Dewpoint
60 59 59 59 59 59 59 59 60 60 61 61 61 61 62 62 61 52 28 44 72 75 71 59 59 62 64 61 63 58 52 41 41 44 48 49 50 53 53 53 53 54 55 60 62
59 59 58 58 59 59 59 59 60 60 60 60 61 61 62 62 54 41 55 76 75 74 60 57 56 60 60 61 60 53 47 44 45 45 48 49 50 51 53 53 53 53 55 59 60
58 58 58 58 58 59 59 59 59 60 60 60 61 62 62 61 40 27 74 77 76 76 60 57 56 55 51 56 54 55 46 45 43 45 46 47 48 51 53 52 52 53 55 59 58
57 57 57 58 57 58 58 59 59 59 59 60 61 63 62 55 10 39 73 75 78 69 57 52 51 47 52 48 53 49 46 47 46 50 46 46 46 49 52 53 53 54 55 55 57
57 57 57 57 57 58 58 58 58 59 59 59 61 63 52 36 30 42 74 73 67 58 48 47 48 47 49 50 52 51 44 48 49 48 46 47 48 48 50 53 55 55 55 54 54
56 56 56 56 57 57 57 57 57 58 58 59 61 63 51 24 21 54 57 63 50 47 43 44 43 47 51 51 51 52 50 52 49 50 47 46 48 52 52 54 54 54 55 55 54
56 55 55 55 56 57 57 57 57 57 58 59 61 57 47 28 33 54 52 47 39 30 30 35 41 39 50 51 51 51 46 52 49 52 50 47 49 51 53 54 53 53 54 54 53
55 55 55 55 55 56 56 56 56 57 59 60 62 54 38 37 38 30 28 19 19 25 24 27 34 45 50 53 50 50 54 52 52 53 52 50 47 51 53 53 52 53 53 53 53
55 55 55 55 55 55 55 55 57 59 60 63 56 48 41 49 22 23 21 13 13 16 27 31 30 39 49 46 48 51 49 48 48 50 50 51 47 48 51 51 51 51 52 52 52
55 55 55 54 54 54 54 55 56 58 58 57 53 44 43 34 20 16 15 14 11 16 20 29 27 28 46 44 42 46 48 49 48 49 52 52 52 46 48 49 49 49 50 50 50
55 55 54 54 53 53 52 48 38 37 45 39 46 37 41 37 26 18 12 8 13 17 16 20 23 23 29 44 44 45 47 46 49 49 51 49 53 48 46 47 47 48 49 50 51
55 55 54 53 53 52 51 45 41 38 36 38 38 38 38 36 30 23 22 20 17 16 18 16 20 23 27 42 44 44 43 44 44 47 49 50 51 51 52 46 47 48 50 51 53
55 55 54 53 52 50 42 42 43 39 37 36 36 35 35 31 28 24 22 21 18 16 14 13 14 18 23 41 43 44 39 42 42 45 48 49 52 54 57 52 50 51 53 52 53
55 55 53 52 41 45 43 42 42 39 33 33 32 31 30 26 21 24 23 18 17 14 14 9 10 13 15 28 41 41 42 39 41 44 44 48 44 52 52 52 52 52 52 51 53
55 54 53 52 46 43 42 43 41 38 26 33 26 27 23 21 20 18 20 14 14 13 10 8 9 8 11 12 34 36 40 33 41 43 43 41 47 49 50 49 47 50 52 51 52
54 53 52 48 46 46 45 39 39 33 24 28 28 25 22 21 21 21 19 15 15 13 16 12 12 8 7 8 14 33 38 38 38 40 33 34 41 41 48 48 48 47 52 51 52
53 52 51 47 28 39 40 40 34 30 30 26 25 24 21 21 21 15 16 16 15 22 16 8 8 11 8 8 12 21 18 18 23 22 24 32 38 35 46 48 47 49 52 51 52
51 50 50 48 47 43 41 37 34 33 30 27 24 21 19 20 17 14 15 15 18 11 8 5 4 10 10 6 8 19 12 17 16 19 20 38 29 32 44 45 46 47 51 52 53
50 47 46 46 47 43 40 35 31 31 29 27 21 21 20 19 16 13 17 17 16 13 9 5 7 10 9 8 7 8 6 10 12 28 11 22 37 37 44 44 46 47 47 51 52
47 46 45 45 45 44 39 36 34 33 30 28 21 23 22 25 19 12 14 16 15 11 6 5 2 3 5 9 9 5 4 8 6 13 12 14 31 32 39 42 44 44 46 48 51
46 42 45 46 45 42 37 36 34 33 31 28 21 19 23 26 27 21 13 16 16 13 5 3 4 1 7 5 4 5 8 11 3 12 5 10 27 34 34 42 43 44 44 53 56
44 39 43 45 38 40 38 38 37 32 31 28 20 22 20 20 23 26 25 17 18 11 6 4 3 2 3 8 7 4 2 3 4 1 13 13 15 28 35 41 42 41 46 53 53
41 42 43 41 35 36 34 31 32 31 30 25 26 26 21 19 25 28 28 28 16 13 11 12 8 2 3 5 7 4 5 3 5 7 3 7 10 30 37 38 40 43 47 49 53
43 41 40 42 41 39 35 33 31 34 30 26 27 27 28 29 30 29 32 37 25 16 53 31 10 5 6 5 11 9 7 6 3 5 10 9 10 26 31 37 40 48 52 52 54
44 42 41 38 38 37 36 33 34 30 28 28 28 25 25 28 30 36 41 41 38 43 21 12 9 11 11 12 14 12 9 9 4 5 5 7 15 28 29 43 45 48 53 52 51
41 42 43 41 40 30 31 32 30 29 25 29 28 28 25 26 31 40 40 40 40 39 37 23 12 36 11 13 17 17 16 9 7 6 10 12 15 31 43 50 49 47 49 51 50
47 45 44 41 39 36 29 36 34 33 31 34 39 33 39 40 40 40 40 40 39 43 37 32 16 16 12 19 23 15 15 14 12 8 6 16 22 43 43 52 54 54 49 49 50
Lifted_Index
14 14 14 13 13 13 13 12 12 12 13 13 13 12 12 11 9 6 4 2 -1 -2 -3 -2 -1 -1 -1 -1 -1 -1 -0 1 1 1 0 0 0 0 1 1 1 1 1 -0 -1
15 15 14 14 14 13 13 12 12 12 12 12 13 12 12 10 8 6 3 0 -2 -2 -3 -3 -2 -1 -2 -2 -2 -1 -0 0 0 0 -0 -0 0 0 1 1 1 1 1 -0 -1
15 15 15 14 14 14 13 13 12 12 12 12 12 12 11 10 8 6 3 -1 -3 -2 -2 -1 -1 -1 -2 -2 -2 -1 -1 -1 -0 -0 -1 -0 0 0 0 1 1 1 1 0 -0
15 15 15 14 14 14 14 13 12 12 12 12 12 11 11 9 8 6 3 -0 -2 -1 1 1 0 -1 -1 -1 -1 -1 -1 -1 -1 -1 -0 0 0 0 0 1 1 1 1 1 1
15 15 14 14 14 14 14 14 13 12 12 12 12 11 10 8 7 6 4 2 1 2 3 3 1 0 -0 -1 -1 -1 -2 -2 -1 -1 -1 -0 -0 -0 0 1 1 1 1 1 1
15 15 14 14 14 14 14 14 13 13 13 13 12 11 9 8 8 7 5 4 5 5 4 3 3 2 0 -1 -1 -1 -2 -2 -2 -2 -2 -1 -1 -0 0 1 1 1 1 1 1
15 15 14 14 13 13 14 14 13 12 12 12 12 11 9 8 8 7 6 6 7 6 5 3 3 3 1 -1 -1 -1 -2 -2 -3 -2 -2 -1 -1 -0 0 0 1 1 1 1 1
15 15 14 14 13 13 13 13 12 11 11 12 11 10 9 9 9 8 8 7 7 7 5 4 3 2 1 -0 -1 -1 -1 -2 -2 -2 -2 -1 -1 -0 -0 0 0 1 1 1 1
15 15 14 14 13 12 12 10 9 9 9 10 10 9 8 8 9 9 9 8 7 7 5 4 4 3 1 -0 -1 -1 -1 -1 -1 -1 -2 -2 -1 -1 -0 -0 0 1 1 1 2
16 16 15 14 13 12 10 9 8 8 8 8 8 8 8 8 8 9 9 8 8 7 5 4 4 4 2 0 -1 -1 -0 -1 -1 -1 -2 -2 -2 -1 -1 -0 0 1 1 2 2
16 16 15 14 13 11 9 8 8 8 7 7 7 7 7 7 8 8 8 8 7 6 5 4 4 3 2 1 0 -0 -1 -1 -1 -1 -2 -2 -2 -1 -1 -0 0 1 1 1 1
16 16 15 14 12 10 9 8 8 7 6 6 6 6 6 6 7 7 8 8 7 6 5 4 3 3 3 2 1 -0 -1 -1 -1 -1 -2 -2 -2 -1 -1 -1 -0 0 0 0 0
16 16 15 14 12 9 8 8 8 7 6 5 5 5 5 6 6 6 7 7 6 6 5 4 3 3 3 3 1 0 -0 -1 -1 -1 -1 -2 -2 -2 -2 -1 -0 -0 -0 -0 -1
16 16 15 14 11 8 7 8 8 7 5 4 4 5 5 5 5 6 6 7 6 5 5 4 3 3 3 2 1 0 -0 -0 -0 -0 -1 -1 -2 -2 -2 -1 -0 -0 -1 -1 -1
16 16 16 14 12 9 8 8 7 6 3 3 4 4 5 5 5 5 6 6 6 5 5 4 4 3 3 2 1 0 -0 -0 -0 -0 -0 -1 -1 -2 -1 -1 -1 -0 -1 -1 -1
17 16 16 14 12 10 9 8 6 4 3 3 3 4 4 4 5 5 5 5 5 5 5 4 3 3 3 2 1 0 -0 -0 -0 -0 -0 -1 -1 -1 -1 -1 -1 -1 -1 -1 -1
16 16 15 14 13 11 9 7 5 3 3 3 3 2 3 3 4 4 4 4 4 4 4 3 3 3 3 2 1 0 -0 -0 -0 -1 -0 -1 -1 -1 -1 -1 -1 -1 -1 -1 -1
16 15 14 13 13 11 9 5 3 3 3 4 3 2 2 2 3 3 3 3 3 3 3 3 2 2 2 2 1 1 0 0 -0 -0 -0 -0 -1 -0 -0 -0 0 0 -1 -2 -2
15 13 12 12 12 11 8 4 3 3 4 4 3 2 1 1 1 2 2 2 2 2 3 2 2 2 2 1 1 1 1 1 0 -0 -0 -0 -0 -0 0 0 1 1 -0 -1 -2
12 11 9 9 9 9 6 4 3 4 4 4 3 2 1 0 0 0 1 1 1 1 2 2 1 1 1 1 1 1 1 1 0 0 -0 -0 -0 -0 0 1 1 1 0 -0 -1
11 9 8 8 8 7 5 4 4 4 5 4 3 2 1 1 0 0 -0 -0 -0 0 1 1 1 1 0 0 0 0 0 0 0 0 0 -0 -0 -0 0 1 1 1 1 -0 -1
10 8 7 7 7 7 6 6 5 5 5 5 4 3 2 1 1 1 -0 -0 -0 -0 -0 0 1 0 0 0 0 -0 0 0 0 0 0 -0 -0 0 0 1 1 1 1 -0 -1
10 8 7 7 6 7 7 7 6 5 5 5 4 4 3 2 1 1 0 -0 -0 -1 -0 -0 0 -0 -0 0 0 -0 -0 0 0 0 -0 -0 -0 0 0 1 1 1 0 -1 -2
10 9 7 6 6 6 7 6 6 5 5 5 5 4 3 2 1 1 -0 -0 -0 -0 -0 -0 -0 0 0 0 0 -0 -0 -0 -0 -0 -0 -0 0 0 0 0 1 0 -0 -1 -2
11 9 7 6 5 5 6 5 5 5 5 5 5 4 3 3 2 1 -0 -1 -1 -0 -0 -0 0 1 1 1 0 0 -0 -0 -0 -0 -0 0 0 0 0 -0 -0 -0 -1 -1 -2
9 8 7 6 5 5 5 5 5 5 5 5 4 4 3 3 2 0 -0 -1 -1 -1 -0 0 1 1 1 1 1 0 -0 -0 -0 -0 -0 -0 -0 -0 -0 -1 -1 -1 -2 -2 -2
8 8 7 6 5 4 4 4 5 5 5 4 4 3 3 2 1 0 -0 -1 -1 -1 -0 1 1 1 1 1 1 0 -0 -0 -0 -0 -0 -0 -0 -0 -1 -1 -2 -2 -2 -2 -2